sat.trackr.live / text

‹ back to catalog

VERTECS

NORAD 69506 · 2026-132E

PAYLOAD ACTIVE UNKNOWN

§ Identity

Operator
Country
JPN
Launch date
2026-06-12
Launch site
TANSC
Launch vehicle
Mass (kg)
RCS (m²)

External: N2YO · Heavens-Above · Gunter

§ Orbital elements

Epoch: 2026-09-19T09:47:23.460288Z

Period
95.92 min
Inclination
97.6581°
Eccentricity
0.0013433
Mean motion
15.01232907 rev/d
Perigee alt
553.8 km
Apogee alt
572.4 km
Semi-major
6,941.2 km
B*
1.4020e-4
RAAN
324.9479°
Arg perigee
358.6988°
Mean anomaly
1.4199°
Rev number
1,490

§ Raw data

VERTECS1 69506U 26132E   26262.40791042  .00001743  00000+0  14020-3 0  99992 69506  97.6581 324.9479 0013433 358.6988   1.4199 15.01232907 14901

JSON: /api/v1/satellites/69506 · /tle

For live sub-satellite position, see the globe view (requires WebGL).

§ Visibility from observer

Set your observer location to see the next 7 days of passes ≥ 10°. The values pass through the URL so the page stays shareable.

No JS? Fill the form by hand. The geolocation button needs JavaScript.